Time,TemperatureF,DewpointF,PressureIn,WindDirection,WindDirectionDegrees,WindSpeedMPH,WindSpeedGustMPH,Humidity,HourlyPrecipIn,Conditions,Clouds,dailyrainin,SoftwareType,DateUTC
2013-09-08 00:01:00,64.9,64.3,30.00,SSE,148,0.0,0.0,98,0.00,,---,0.00,VWS V14.01,2013-09-08 04:01:00,
2013-09-08 00:06:00,64.8,64.2,30.00,SSE,148,0.0,0.0,98,0.00,,---,0.00,VWS V14.01,2013-09-08 04:06:00,
2013-09-08 00:11:00,64.7,64.1,30.00,SSE,148,0.0,0.0,98,0.00,,---,0.00,VWS V14.01,2013-09-08 04:11:00,
2013-09-08 00:16:00,64.5,63.9,30.00,SSE,148,0.0,0.0,98,0.00,,---,0.00,VWS V14.01,2013-09-08 04:16:00,
2013-09-08 00:21:00,64.5,63.9,30.00,SSE,148,0.0,0.0,98,0.00,,---,0.00,VWS V14.01,2013-09-08 04:21:00,
2013-09-08 00:26:00,64.4,63.8,30.00,SSE,148,0.0,0.0,98,0.00,,---,0.00,VWS V14.01,2013-09-08 04:26:00,
2013-09-08 00:31:00,64.4,63.8,30.00,SSE,148,0.0,0.0,98,0.00,,---,0.00,VWS V14.01,2013-09-08 04:31:00,
2013-09-08 00:36:00,64.3,63.7,30.00,SSE,148,0.0,0.0,98,0.00,,---,0.00,VWS V14.01,2013-09-08 04:36:00,
2013-09-08 00:41:00,64.2,63.6,30.00,SSE,148,0.0,0.0,98,0.00,,---,0.00,VWS V14.01,2013-09-08 04:41:00,
2013-09-08 00:46:00,64.1,63.5,30.00,SSE,148,0.0,0.0,98,0.00,,---,0.00,VWS V14.01,2013-09-08 04:46:00,
2013-09-08 00:51:00,64.1,63.5,30.00,SSE,148,0.0,0.0,98,0.00,,---,0.00,VWS V14.01,2013-09-08 04:51:00,
2013-09-08 00:56:00,64.0,63.4,30.00,SSE,148,0.0,0.0,98,0.00,,---,0.00,VWS V14.01,2013-09-08 04:56:00,
2013-09-08 01:01:00,63.9,63.3,30.00,SSE,148,0.0,0.0,98,0.00,,---,0.00,VWS V14.01,2013-09-08 05:01:00,
2013-09-08 01:06:00,63.9,63.3,30.00,SSE,148,0.0,0.0,98,0.00,,---,0.00,VWS V14.01,2013-09-08 05:06:00,
2013-09-08 01:11:00,63.8,63.2,30.00,SSE,148,0.0,0.0,98,0.00,,---,0.00,VWS V14.01,2013-09-08 05:11:00,
2013-09-08 01:16:00,63.8,63.5,30.00,SSE,148,0.0,0.0,99,0.00,,---,0.00,VWS V14.01,2013-09-08 05:16:00,
2013-09-08 01:21:00,63.8,63.5,30.00,SSE,148,0.0,0.0,99,0.00,,---,0.00,VWS V14.01,2013-09-08 05:21:00,
2013-09-08 01:26:00,63.8,63.5,30.00,SSE,148,0.0,0.0,99,0.00,,---,0.00,VWS V14.01,2013-09-08 05:26:00,
2013-09-08 01:31:00,63.8,63.5,30.00,SSE,148,0.0,0.0,99,0.00,,---,0.00,VWS V14.01,2013-09-08 05:31:00,
2013-09-08 01:36:00,63.7,63.4,30.00,SSE,148,0.0,0.0,99,0.00,,---,0.00,VWS V14.01,2013-09-08 05:36:00,
2013-09-08 01:41:00,63.6,63.0,30.00,SSE,148,0.0,0.0,98,0.00,,---,0.00,VWS V14.01,2013-09-08 05:41:00,
2013-09-08 01:46:00,63.5,62.9,30.00,SSE,148,0.0,0.0,98,0.00,,---,0.00,VWS V14.01,2013-09-08 05:46:00,
2013-09-08 01:51:00,63.4,62.8,30.00,SSE,148,0.0,0.0,98,0.00,,---,0.00,VWS V14.01,2013-09-08 05:51:00,
2013-09-08 01:56:00,63.3,62.7,30.00,SSE,148,0.0,0.0,98,0.00,,---,0.00,VWS V14.01,2013-09-08 05:56:00,
2013-09-08 02:01:00,63.3,62.7,30.00,SSE,148,0.0,0.0,98,0.00,,---,0.00,VWS V14.01,2013-09-08 06:01:00,
2013-09-08 02:06:00,63.2,62.6,30.00,SSE,148,0.0,0.0,98,0.00,,---,0.00,VWS V14.01,2013-09-08 06:06:00,
2013-09-08 02:11:00,63.1,62.5,29.99,SSE,148,0.0,0.0,98,0.00,,---,0.00,VWS V14.01,2013-09-08 06:11:00,
2013-09-08 02:16:00,63.0,62.7,29.99,SSE,148,0.0,0.0,99,0.00,,---,0.00,VWS V14.01,2013-09-08 06:16:00,
2013-09-08 02:21:00,62.9,62.3,29.99,SSE,148,0.0,0.0,98,0.00,,---,0.00,VWS V14.01,2013-09-08 06:21:00,
2013-09-08 02:26:00,62.7,62.1,29.99,SSE,148,0.0,0.0,98,0.00,,---,0.00,VWS V14.01,2013-09-08 06:26:00,
2013-09-08 02:31:00,62.6,62.0,29.99,SSE,148,0.0,0.0,98,0.00,,---,0.00,VWS V14.01,2013-09-08 06:31:00,
2013-09-08 02:36:00,62.4,61.8,29.99,SSE,148,0.0,0.0,98,0.00,,---,0.00,VWS V14.01,2013-09-08 06:36:00,
2013-09-08 02:41:00,62.3,61.7,29.99,SSE,148,0.0,0.0,98,0.00,,---,0.00,VWS V14.01,2013-09-08 06:41:00,
2013-09-08 02:46:00,62.2,61.6,29.99,SSE,148,0.0,0.0,98,0.00,,---,0.00,VWS V14.01,2013-09-08 06:46:00,
2013-09-08 02:51:00,62.1,61.5,29.99,SSE,148,0.0,0.0,98,0.00,,---,0.00,VWS V14.01,2013-09-08 06:51:00,
2013-09-08 02:56:00,62.1,61.8,29.99,SSE,148,0.0,0.0,99,0.00,,---,0.00,VWS V14.01,2013-09-08 06:56:00,
2013-09-08 03:01:00,62.1,61.8,29.99,SSE,148,0.0,0.0,99,0.00,,---,0.00,VWS V14.01,2013-09-08 07:01:00,
2013-09-08 03:06:00,62.1,61.8,29.99,SSE,148,0.0,0.0,99,0.00,,---,0.00,VWS V14.01,2013-09-08 07:06:00,
2013-09-08 03:11:00,62.1,61.8,29.99,SSE,148,0.0,0.0,99,0.00,,---,0.00,VWS V14.01,2013-09-08 07:11:00,
2013-09-08 03:16:00,62.1,61.8,29.99,SSE,148,0.0,0.0,99,0.00,,---,0.00,VWS V14.01,2013-09-08 07:16:00,
2013-09-08 03:21:00,62.0,61.7,29.99,SSE,148,0.0,0.0,99,0.00,,---,0.00,VWS V14.01,2013-09-08 07:21:00,
2013-09-08 03:26:00,62.0,61.7,29.99,SSE,148,0.0,0.0,99,0.00,,---,0.00,VWS V14.01,2013-09-08 07:26:00,
2013-09-08 03:31:00,61.9,61.6,29.99,SSE,148,0.0,0.0,99,0.00,,---,0.00,VWS V14.01,2013-09-08 07:31:00,
2013-09-08 03:36:00,61.8,61.5,29.99,SSE,148,0.0,0.0,99,0.00,,---,0.00,VWS V14.01,2013-09-08 07:36:00,
2013-09-08 03:41:00,61.7,61.4,29.99,SSE,148,0.0,0.0,99,0.00,,---,0.00,VWS V14.01,2013-09-08 07:41:00,
2013-09-08 03:46:00,61.6,61.3,29.99,SSE,148,0.0,0.0,99,0.00,,---,0.00,VWS V14.01,2013-09-08 07:46:00,
2013-09-08 03:51:00,61.6,61.3,29.99,SSE,148,0.0,0.0,99,0.00,,---,0.00,VWS V14.01,2013-09-08 07:51:00,
2013-09-08 03:56:00,61.5,61.2,29.99,SSE,148,0.0,0.0,99,0.00,,---,0.00,VWS V14.01,2013-09-08 07:56:00,
2013-09-08 04:01:00,61.5,61.2,29.99,SSE,148,0.0,0.0,99,0.00,,---,0.00,VWS V14.01,2013-09-08 08:01:00,
2013-09-08 04:06:00,61.4,61.1,29.99,SSE,148,0.0,0.0,99,0.00,,---,0.00,VWS V14.01,2013-09-08 08:06:00,
2013-09-08 04:11:00,61.3,61.0,29.99,SSE,148,0.0,0.0,99,0.00,,---,0.00,VWS V14.01,2013-09-08 08:11:00,
2013-09-08 04:16:00,61.2,60.9,29.99,SSE,148,0.0,0.0,99,0.00,,---,0.00,VWS V14.01,2013-09-08 08:16:00,
2013-09-08 04:21:00,61.2,60.9,29.99,SSE,148,0.0,0.0,99,0.00,,---,0.00,VWS V14.01,2013-09-08 08:21:00,
2013-09-08 04:26:00,61.1,60.8,29.99,SSE,148,0.0,0.0,99,0.00,,---,0.00,VWS V14.01,2013-09-08 08:26:00,
2013-09-08 04:31:00,61.2,60.9,29.99,SSE,148,0.0,0.0,99,0.00,,---,0.00,VWS V14.01,2013-09-08 08:31:00,
2013-09-08 04:36:00,61.1,60.8,29.99,SSE,148,0.0,0.0,99,0.00,,---,0.00,VWS V14.01,2013-09-08 08:36:00,
2013-09-08 04:41:00,61.0,60.7,29.99,SSE,148,0.0,0.0,99,0.00,,---,0.00,VWS V14.01,2013-09-08 08:41:00,
2013-09-08 04:46:00,61.0,60.7,29.99,SSE,148,0.0,0.0,99,0.00,,---,0.00,VWS V14.01,2013-09-08 08:46:00,
2013-09-08 04:51:00,61.0,60.7,29.99,SSE,148,0.0,0.0,99,0.00,,---,0.00,VWS V14.01,2013-09-08 08:51:00,
2013-09-08 04:56:00,61.0,60.7,29.98,SSE,148,0.0,0.0,99,0.00,,---,0.00,VWS V14.01,2013-09-08 08:56:00,
2013-09-08 05:01:00,61.0,60.7,29.98,SSE,148,0.0,0.0,99,0.00,,---,0.00,VWS V14.01,2013-09-08 09:01:00,
2013-09-08 05:06:00,61.1,60.8,29.99,SSE,148,0.0,0.0,99,0.00,,---,0.00,VWS V14.01,2013-09-08 09:06:00,
2013-09-08 05:10:00,61.0,60.7,29.99,SSE,148,0.0,0.0,99,0.00,,---,0.00,VWS V14.01,2013-09-08 09:10:00,
2013-09-08 05:15:00,61.0,60.7,29.98,SSE,148,0.0,0.0,99,0.00,,---,0.00,VWS V14.01,2013-09-08 09:15:00,
2013-09-08 05:20:00,61.0,60.7,29.99,SSE,148,0.0,0.0,99,0.00,,---,0.00,VWS V14.01,2013-09-08 09:20:00,
2013-09-08 05:25:00,61.1,60.8,29.99,SSE,148,0.0,0.0,99,0.00,,---,0.00,VWS V14.01,2013-09-08 09:25:00,
2013-09-08 05:30:00,61.0,60.7,29.99,SSE,148,0.0,0.0,99,0.00,,---,0.00,VWS V14.01,2013-09-08 09:30:00,
2013-09-08 05:35:00,60.9,60.6,29.99,SSE,148,0.0,0.0,99,0.00,,---,0.00,VWS V14.01,2013-09-08 09:35:00,
2013-09-08 05:40:00,60.9,60.6,29.99,SSE,148,0.0,0.0,99,0.00,,---,0.00,VWS V14.01,2013-09-08 09:40:00,
2013-09-08 05:45:00,60.8,60.5,29.99,SSE,148,0.0,0.0,99,0.00,,---,0.00,VWS V14.01,2013-09-08 09:45:00,
2013-09-08 05:50:00,60.7,60.4,29.99,SSE,148,0.0,0.0,99,0.00,,---,0.00,VWS V14.01,2013-09-08 09:50:00,
2013-09-08 05:55:00,60.7,60.4,29.99,SSE,148,0.0,0.0,99,0.00,,---,0.00,VWS V14.01,2013-09-08 09:55:00,
2013-09-08 06:00:00,60.6,60.3,29.99,SSE,148,0.0,0.0,99,0.00,,---,0.00,VWS V14.01,2013-09-08 10:00:00,
2013-09-08 06:05:00,60.6,60.3,29.99,SSE,148,0.0,0.0,99,0.00,,---,0.00,VWS V14.01,2013-09-08 10:05:00,
2013-09-08 06:10:00,60.6,60.3,29.99,SSE,148,0.0,0.0,99,0.00,,---,0.00,VWS V14.01,2013-09-08 10:10:00,
2013-09-08 06:15:00,60.6,60.3,29.99,SSE,148,0.0,0.0,99,0.00,,---,0.00,VWS V14.01,2013-09-08 10:15:00,
2013-09-08 06:20:00,60.6,60.3,29.99,SSE,148,0.0,0.0,99,0.00,,---,0.00,VWS V14.01,2013-09-08 10:20:00,
2013-09-08 06:25:00,60.5,60.2,29.99,SSE,148,0.0,0.0,99,0.00,,---,0.00,VWS V14.01,2013-09-08 10:25:00,
2013-09-08 06:30:00,60.5,60.2,29.99,SSE,148,0.0,0.0,99,0.00,,---,0.00,VWS V14.01,2013-09-08 10:30:00,
2013-09-08 06:35:00,60.5,60.2,29.99,SSE,148,0.0,0.0,99,0.00,,---,0.00,VWS V14.01,2013-09-08 10:35:00,
2013-09-08 06:40:00,60.5,60.2,29.99,SSE,148,0.0,0.0,99,0.00,,---,0.00,VWS V14.01,2013-09-08 10:40:00,
2013-09-08 06:45:00,60.4,60.1,29.99,SSE,148,0.0,0.0,99,0.00,,---,0.00,VWS V14.01,2013-09-08 10:45:00,
2013-09-08 06:50:00,60.5,60.2,29.99,SSE,148,0.0,0.0,99,0.00,,---,0.00,VWS V14.01,2013-09-08 10:50:00,
2013-09-08 06:55:00,60.6,60.3,29.99,SSE,148,0.0,0.0,99,0.00,,---,0.00,VWS V14.01,2013-09-08 10:55:00,
2013-09-08 07:00:00,60.6,60.3,29.99,SSE,148,0.0,0.0,99,0.00,,---,0.00,VWS V14.01,2013-09-08 11:00:00,
2013-09-08 07:05:00,60.5,60.2,29.99,SSE,148,0.0,0.0,99,0.00,,---,0.00,VWS V14.01,2013-09-08 11:05:00,
2013-09-08 07:10:00,60.5,60.2,29.99,SSE,148,0.0,0.0,99,0.00,,---,0.00,VWS V14.01,2013-09-08 11:10:00,
2013-09-08 07:15:00,60.5,60.2,29.99,SSE,148,0.0,0.0,99,0.00,,---,0.00,VWS V14.01,2013-09-08 11:15:00,
2013-09-08 07:20:00,60.5,60.2,29.99,SSE,148,0.0,0.0,99,0.00,,---,0.00,VWS V14.01,2013-09-08 11:20:00,
2013-09-08 07:25:00,60.5,60.2,30.00,SSE,148,0.0,0.0,99,0.00,,---,0.00,VWS V14.01,2013-09-08 11:25:00,
2013-09-08 07:30:00,60.6,60.3,29.99,SSE,148,0.0,0.0,99,0.00,,---,0.00,VWS V14.01,2013-09-08 11:30:00,
2013-09-08 07:35:00,60.6,60.3,30.00,SSE,148,0.0,0.0,99,0.00,,---,0.00,VWS V14.01,2013-09-08 11:35:00,
2013-09-08 07:40:00,60.6,60.3,30.00,SSE,148,0.0,0.0,99,0.00,,---,0.00,VWS V14.01,2013-09-08 11:40:00,
2013-09-08 07:45:00,60.6,60.3,30.00,SSE,148,0.0,0.0,99,0.00,,---,0.00,VWS V14.01,2013-09-08 11:45:00,
2013-09-08 07:50:00,60.7,60.4,30.00,SSE,148,0.0,0.0,99,0.00,,---,0.00,VWS V14.01,2013-09-08 11:50:00,
2013-09-08 07:55:00,60.8,60.8,30.00,SSE,148,0.0,0.0,100,0.00,,---,0.00,VWS V14.01,2013-09-08 11:55:00,
2013-09-08 08:00:00,60.9,60.9,30.00,SSE,148,0.0,0.0,100,0.00,,---,0.00,VWS V14.01,2013-09-08 12:00:00,
2013-09-08 08:05:00,61.1,61.1,30.00,North,9,0.0,0.0,100,0.00,,---,0.00,VWS V14.01,2013-09-08 12:05:00,
2013-09-08 08:10:00,61.2,61.2,30.00,NNW,337,0.0,0.0,100,0.00,,---,0.00,VWS V14.01,2013-09-08 12:10:00,
2013-09-08 08:15:00,61.4,61.4,30.00,NNW,337,0.0,0.0,100,0.00,,---,0.00,VWS V14.01,2013-09-08 12:15:00,
2013-09-08 08:20:00,61.5,61.5,30.00,NNW,337,0.0,0.0,100,0.00,,---,0.00,VWS V14.01,2013-09-08 12:20:00,
2013-09-08 08:25:00,61.7,61.7,30.00,NNW,337,0.0,0.0,100,0.00,,---,0.00,VWS V14.01,2013-09-08 12:25:00,
2013-09-08 08:30:00,61.9,61.9,30.00,NNW,337,0.0,0.0,100,0.00,,---,0.00,VWS V14.01,2013-09-08 12:30:00,
2013-09-08 08:35:00,62.1,61.8,30.00,NNW,337,0.0,0.0,99,0.00,,---,0.00,VWS V14.01,2013-09-08 12:35:00,
2013-09-08 08:40:00,62.4,62.1,30.00,NNW,337,0.0,0.0,99,0.00,,---,0.00,VWS V14.01,2013-09-08 12:40:00,
2013-09-08 08:45:00,62.6,62.3,30.00,NNW,337,0.0,0.0,99,0.00,,---,0.00,VWS V14.01,2013-09-08 12:45:00,
2013-09-08 08:50:00,62.9,62.6,30.00,NNW,337,0.0,0.0,99,0.00,,---,0.00,VWS V14.01,2013-09-08 12:50:00,
2013-09-08 08:55:00,63.1,62.5,30.00,NNW,337,0.0,0.0,98,0.00,,---,0.00,VWS V14.01,2013-09-08 12:55:00,
2013-09-08 09:00:00,63.4,62.8,30.00,NNW,337,0.0,0.0,98,0.00,,---,0.00,VWS V14.01,2013-09-08 13:00:00,
2013-09-08 09:05:00,63.6,63.0,30.00,NNW,337,0.0,0.0,98,0.00,,---,0.00,VWS V14.01,2013-09-08 13:05:00,
2013-09-08 09:10:00,63.9,63.0,30.00,NNW,337,0.0,0.0,97,0.00,,---,0.00,VWS V14.01,2013-09-08 13:10:00,
2013-09-08 09:15:00,64.1,62.9,30.00,NNW,331,0.0,0.0,96,0.00,,---,0.00,VWS V14.01,2013-09-08 13:15:00,
2013-09-08 09:20:00,64.4,63.5,30.00,NW,316,0.0,0.0,97,0.00,,---,0.00,VWS V14.01,2013-09-08 13:20:00,
2013-09-08 09:25:00,64.6,63.7,30.00,NW,316,0.0,0.0,97,0.00,,---,0.00,VWS V14.01,2013-09-08 13:25:00,
2013-09-08 09:30:00,64.8,63.9,30.00,NW,316,0.0,0.0,97,0.00,,---,0.00,VWS V14.01,2013-09-08 13:30:00,
2013-09-08 09:35:00,64.9,64.0,30.00,NW,315,0.0,0.0,97,0.00,,---,0.00,VWS V14.01,2013-09-08 13:35:00,
2013-09-08 09:40:00,65.1,63.9,30.00,WNW,302,0.0,0.0,96,0.00,,---,0.00,VWS V14.01,2013-09-08 13:40:00,
2013-09-08 09:45:00,65.5,64.0,30.00,WNW,302,0.0,0.0,95,0.00,,---,0.00,VWS V14.01,2013-09-08 13:45:00,
2013-09-08 09:50:00,65.9,63.8,30.00,WNW,302,0.0,0.0,93,0.00,,---,0.00,VWS V14.01,2013-09-08 13:50:00,
2013-09-08 09:55:00,66.3,63.9,30.00,WNW,302,0.0,0.0,92,0.00,,---,0.00,VWS V14.01,2013-09-08 13:55:00,
2013-09-08 10:00:00,66.8,64.4,30.00,WNW,302,0.0,0.0,92,0.00,,---,0.00,VWS V14.01,2013-09-08 14:00:00,
2013-09-08 10:05:00,67.1,64.7,30.00,WNW,302,0.0,0.0,92,0.00,,---,0.00,VWS V14.01,2013-09-08 14:05:00,
2013-09-08 10:10:00,67.4,65.3,30.00,WNW,302,0.0,0.0,93,0.00,,---,0.00,VWS V14.01,2013-09-08 14:10:00,
2013-09-08 10:15:00,67.7,65.6,30.00,WNW,302,0.0,0.0,93,0.00,,---,0.00,VWS V14.01,2013-09-08 14:15:00,
2013-09-08 10:20:00,67.9,65.5,30.00,WNW,302,0.0,0.0,92,0.00,,---,0.00,VWS V14.01,2013-09-08 14:20:00,
2013-09-08 10:25:00,68.1,66.0,30.00,WNW,302,0.0,0.0,93,0.00,,---,0.00,VWS V14.01,2013-09-08 14:25:00,
2013-09-08 10:30:00,68.4,66.3,30.00,WNW,302,0.0,0.0,93,0.00,,---,0.00,VWS V14.01,2013-09-08 14:30:00,
2013-09-08 10:35:00,68.7,66.6,30.00,WNW,302,0.0,0.0,93,0.00,,---,0.00,VWS V14.01,2013-09-08 14:35:00,
2013-09-08 10:40:00,68.9,66.2,30.00,WNW,302,0.0,0.0,91,0.00,,---,0.00,VWS V14.01,2013-09-08 14:40:00,
2013-09-08 10:45:00,69.2,66.5,30.00,WNW,302,0.0,0.0,91,0.00,,---,0.00,VWS V14.01,2013-09-08 14:45:00,
2013-09-08 10:50:00,69.4,66.3,30.00,WNW,302,0.0,0.0,90,0.00,,---,0.00,VWS V14.01,2013-09-08 14:50:00,
2013-09-08 10:55:00,69.7,66.3,30.00,WNW,302,0.0,0.0,89,0.00,,---,0.00,VWS V14.01,2013-09-08 14:55:00,
2013-09-08 11:00:00,69.9,65.9,30.00,WNW,302,0.0,0.0,87,0.00,,---,0.00,VWS V14.01,2013-09-08 15:00:00,
2013-09-08 11:05:00,70.3,66.9,30.00,WNW,302,0.0,0.0,89,0.00,,---,0.00,VWS V14.01,2013-09-08 15:05:00,
2013-09-08 11:10:00,70.7,66.7,30.00,WNW,302,0.0,0.0,87,0.00,,---,0.00,VWS V14.01,2013-09-08 15:10:00,
2013-09-08 11:15:00,71.1,67.0,30.00,WNW,302,0.0,0.0,87,0.00,,---,0.00,VWS V14.01,2013-09-08 15:15:00,
2013-09-08 11:20:00,71.6,66.5,30.00,WNW,302,0.0,0.0,84,0.00,,---,0.00,VWS V14.01,2013-09-08 15:20:00,
2013-09-08 11:25:00,72.5,68.8,30.00,WNW,302,0.0,0.0,88,0.00,,---,0.00,VWS V14.01,2013-09-08 15:25:00,
2013-09-08 11:30:00,73.5,69.1,30.00,WNW,302,0.0,0.0,86,0.00,,---,0.00,VWS V14.01,2013-09-08 15:30:00,
2013-09-08 11:35:00,74.5,69.7,30.00,WNW,302,0.0,0.0,85,0.00,,---,0.00,VWS V14.01,2013-09-08 15:35:00,
2013-09-08 11:40:00,75.3,68.7,30.00,WNW,302,0.0,0.0,80,0.00,,---,0.00,VWS V14.01,2013-09-08 15:40:00,
2013-09-08 11:45:00,76.2,69.9,29.99,WNW,302,0.0,0.0,81,0.00,,---,0.00,VWS V14.01,2013-09-08 15:45:00,
2013-09-08 11:50:00,77.0,70.0,29.99,WNW,290,0.0,0.0,79,0.00,,---,0.00,VWS V14.01,2013-09-08 15:50:00,
2013-09-08 11:55:00,77.8,70.8,29.99,WNW,290,0.0,0.0,79,0.00,,---,0.00,VWS V14.01,2013-09-08 15:55:00,
2013-09-08 12:00:00,78.6,69.6,29.99,WNW,290,0.0,0.0,74,0.00,,---,0.00,VWS V14.01,2013-09-08 16:00:00,
2013-09-08 12:04:00,79.4,70.8,29.99,NW,313,0.0,0.0,75,0.00,,---,0.00,VWS V14.01,2013-09-08 16:04:00,
2013-09-08 12:09:00,79.9,70.9,29.99,NW,311,0.0,0.0,74,0.00,,---,0.00,VWS V14.01,2013-09-08 16:09:00,
2013-09-08 12:14:00,80.3,71.3,29.99,WNW,292,0.0,0.0,74,0.00,,---,0.00,VWS V14.01,2013-09-08 16:14:00,
2013-09-08 12:19:00,80.8,70.5,29.99,NW,307,0.0,0.0,71,0.00,,---,0.00,VWS V14.01,2013-09-08 16:19:00,
2013-09-08 12:24:00,80.8,69.3,29.99,NW,307,0.0,0.0,68,0.00,,---,0.00,VWS V14.01,2013-09-08 16:24:00,
2013-09-08 12:29:00,80.8,69.3,29.99,NW,307,0.0,0.0,68,0.00,,---,0.00,VWS V14.01,2013-09-08 16:29:00,
2013-09-08 12:34:00,81.1,70.8,29.98,NW,309,0.0,0.0,71,0.00,,---,0.00,VWS V14.01,2013-09-08 16:34:00,
2013-09-08 12:39:00,81.5,71.6,29.98,WNW,299,0.0,0.0,72,0.00,,---,0.00,VWS V14.01,2013-09-08 16:39:00,
2013-09-08 12:44:00,81.7,71.0,29.98,WNW,300,0.0,0.0,70,0.00,,---,0.00,VWS V14.01,2013-09-08 16:44:00,
2013-09-08 12:49:00,81.6,70.4,29.98,WNW,300,0.0,0.0,69,0.00,,---,0.00,VWS V14.01,2013-09-08 16:49:00,
2013-09-08 12:54:00,81.5,69.5,29.98,NNW,339,0.0,0.0,67,0.00,,---,0.00,VWS V14.01,2013-09-08 16:54:00,
2013-09-08 12:59:00,81.6,70.9,29.98,NNW,337,0.0,0.0,70,0.00,,---,0.00,VWS V14.01,2013-09-08 16:59:00,
2013-09-08 13:04:00,81.7,69.7,29.98,NNW,337,0.0,0.0,67,0.00,,---,0.00,VWS V14.01,2013-09-08 17:04:00,
2013-09-08 13:09:00,81.8,69.3,29.98,NNW,337,0.0,0.0,66,0.00,,---,0.00,VWS V14.01,2013-09-08 17:09:00,
2013-09-08 13:14:00,81.9,69.0,29.97,NNW,337,0.0,0.0,65,0.00,,---,0.00,VWS V14.01,2013-09-08 17:14:00,
2013-09-08 13:19:00,82.0,69.5,29.97,NNW,337,0.0,0.0,66,0.00,,---,0.00,VWS V14.01,2013-09-08 17:19:00,
2013-09-08 13:24:00,82.1,70.1,29.97,NNW,337,0.0,0.0,67,0.00,,---,0.00,VWS V14.01,2013-09-08 17:24:00,
2013-09-08 13:29:00,82.2,69.7,29.97,NNW,337,0.0,0.0,66,0.00,,---,0.00,VWS V14.01,2013-09-08 17:29:00,
2013-09-08 13:34:00,82.3,70.7,29.97,NNW,337,0.0,0.0,68,0.00,,---,0.00,VWS V14.01,2013-09-08 17:34:00,
2013-09-08 13:39:00,82.2,71.0,29.97,NNW,337,0.0,0.0,69,0.00,,---,0.00,VWS V14.01,2013-09-08 17:39:00,
2013-09-08 13:44:00,82.3,68.9,29.97,NNW,337,0.0,0.0,64,0.00,,---,0.00,VWS V14.01,2013-09-08 17:44:00,
2013-09-08 13:49:00,82.5,70.0,29.97,NNW,337,0.0,0.0,66,0.00,,---,0.00,VWS V14.01,2013-09-08 17:49:00,
2013-09-08 13:54:00,82.6,70.5,29.97,NW,307,0.0,0.0,67,0.00,,---,0.00,VWS V14.01,2013-09-08 17:54:00,
2013-09-08 13:59:00,82.7,70.6,29.97,NW,307,0.0,0.0,67,0.00,,---,0.00,VWS V14.01,2013-09-08 17:59:00,
2013-09-08 14:04:00,82.8,70.7,29.97,NW,307,0.0,0.0,67,0.00,,---,0.00,VWS V14.01,2013-09-08 18:04:00,
2013-09-08 14:09:00,83.0,69.6,29.97,NW,319,0.0,0.0,64,0.00,,---,0.00,VWS V14.01,2013-09-08 18:09:00,
2013-09-08 14:14:00,82.9,70.4,29.97,NW,319,0.0,0.0,66,0.00,,---,0.00,VWS V14.01,2013-09-08 18:14:00,
2013-09-08 14:19:00,82.9,71.7,29.97,NW,319,0.0,0.0,69,0.00,,---,0.00,VWS V14.01,2013-09-08 18:19:00,
2013-09-08 14:24:00,83.1,70.1,29.97,NW,319,0.0,0.0,65,0.00,,---,0.00,VWS V14.01,2013-09-08 18:24:00,
2013-09-08 14:29:00,83.1,71.0,29.97,NW,319,0.0,0.0,67,0.00,,---,0.00,VWS V14.01,2013-09-08 18:29:00,
2013-09-08 14:34:00,83.1,71.0,29.97,NW,319,0.0,0.0,67,0.00,,---,0.00,VWS V14.01,2013-09-08 18:34:00,
2013-09-08 14:39:00,83.0,71.4,29.97,NW,319,0.0,0.0,68,0.00,,---,0.00,VWS V14.01,2013-09-08 18:39:00,
2013-09-08 14:44:00,82.7,71.1,29.97,NW,319,0.0,0.0,68,0.00,,---,0.00,VWS V14.01,2013-09-08 18:44:00,
2013-09-08 14:49:00,82.7,70.6,29.96,NW,319,0.0,0.0,67,0.00,,---,0.00,VWS V14.01,2013-09-08 18:49:00,
2013-09-08 14:54:00,82.6,71.0,29.97,NW,319,0.0,0.0,68,0.00,,---,0.00,VWS V14.01,2013-09-08 18:54:00,
2013-09-08 14:59:00,82.3,70.7,29.97,NW,319,0.0,0.0,68,0.00,,---,0.00,VWS V14.01,2013-09-08 18:59:00,
2013-09-08 15:04:00,82.0,70.4,29.96,NW,319,0.0,0.0,68,0.00,,---,0.00,VWS V14.01,2013-09-08 19:04:00,
2013-09-08 15:09:00,81.8,72.3,29.97,NW,319,0.0,0.0,73,0.00,,---,0.00,VWS V14.01,2013-09-08 19:09:00,
2013-09-08 15:14:00,81.6,71.7,29.97,NW,319,0.0,0.0,72,0.00,,---,0.00,VWS V14.01,2013-09-08 19:14:00,
2013-09-08 15:19:00,81.3,71.4,29.96,NW,319,0.0,0.0,72,0.00,,---,0.00,VWS V14.01,2013-09-08 19:19:00,
2013-09-08 15:24:00,81.0,72.3,29.96,NW,319,0.0,0.0,75,0.00,,---,0.00,VWS V14.01,2013-09-08 19:24:00,
2013-09-08 15:29:00,80.7,72.0,29.96,NW,319,0.0,0.0,75,0.00,,---,0.00,VWS V14.01,2013-09-08 19:29:00,
2013-09-08 15:34:00,80.6,72.3,29.96,NW,319,0.0,0.0,76,0.00,,---,0.00,VWS V14.01,2013-09-08 19:34:00,
2013-09-08 15:39:00,80.5,71.8,29.96,NW,319,0.0,0.0,75,0.00,,---,0.00,VWS V14.01,2013-09-08 19:39:00,
2013-09-08 15:44:00,80.6,71.9,29.96,NW,319,0.0,0.0,75,0.00,,---,0.00,VWS V14.01,2013-09-08 19:44:00,
2013-09-08 15:49:00,80.5,71.8,29.96,NW,319,0.0,0.0,75,0.00,,---,0.00,VWS V14.01,2013-09-08 19:49:00,
2013-09-08 15:54:00,80.4,72.9,29.96,NW,319,0.0,0.0,78,0.00,,---,0.00,VWS V14.01,2013-09-08 19:54:00,
2013-09-08 15:59:00,80.4,74.0,29.96,NW,319,0.0,0.0,81,0.00,,---,0.00,VWS V14.01,2013-09-08 19:59:00,
2013-09-08 16:04:00,80.6,74.2,29.95,NW,319,0.0,0.0,81,0.00,,---,0.00,VWS V14.01,2013-09-08 20:04:00,
2013-09-08 16:09:00,80.8,74.1,29.95,NW,319,0.0,0.0,80,0.00,,---,0.00,VWS V14.01,2013-09-08 20:09:00,
2013-09-08 16:14:00,81.0,72.3,29.95,NW,319,0.0,0.0,75,0.00,,---,0.00,VWS V14.01,2013-09-08 20:14:00,
2013-09-08 17:35:00,81.7,73.4,29.95,NW,309,0.0,0.0,76,0.00,,---,0.00,VWS V14.01,2013-09-08 21:35:00,
2013-09-08 17:40:00,81.3,73.4,29.95,NW,309,0.0,0.0,77,0.00,,---,0.00,VWS V14.01,2013-09-08 21:40:00,
2013-09-08 17:45:00,80.9,73.4,29.95,NW,309,0.0,0.0,78,0.00,,---,0.00,VWS V14.01,2013-09-08 21:45:00,
2013-09-08 17:50:00,80.6,73.5,29.95,NW,309,0.0,0.0,79,0.00,,---,0.00,VWS V14.01,2013-09-08 21:50:00,
2013-09-08 17:55:00,80.3,73.6,29.95,NW,309,0.0,0.0,80,0.00,,---,0.00,VWS V14.01,2013-09-08 21:55:00,
2013-09-08 18:00:00,80.0,73.7,29.95,NW,309,0.0,0.0,81,0.00,,---,0.00,VWS V14.01,2013-09-08 22:00:00,
2013-09-08 18:05:00,79.6,73.3,29.95,NW,309,0.0,0.0,81,0.00,,---,0.00,VWS V14.01,2013-09-08 22:05:00,
2013-09-08 18:10:00,79.2,73.2,29.95,NW,309,0.0,0.0,82,0.00,,---,0.00,VWS V14.01,2013-09-08 22:10:00,
2013-09-08 18:15:00,78.9,73.7,29.95,NW,309,0.0,0.0,84,0.00,,---,0.00,VWS V14.01,2013-09-08 22:15:00,
2013-09-08 18:20:00,78.6,73.4,29.95,NW,309,0.0,0.0,84,0.00,,---,0.00,VWS V14.01,2013-09-08 22:20:00,
2013-09-08 18:25:00,78.3,73.4,29.95,NW,309,0.0,0.0,85,0.00,,---,0.00,VWS V14.01,2013-09-08 22:25:00,
2013-09-08 18:30:00,78.1,73.2,29.95,NW,309,0.0,0.0,85,0.00,,---,0.00,VWS V14.01,2013-09-08 22:30:00,
2013-09-08 18:35:00,77.8,73.3,29.96,NW,309,0.0,0.0,86,0.00,,---,0.00,VWS V14.01,2013-09-08 22:35:00,
2013-09-08 18:40:00,77.6,73.4,29.96,NW,309,0.0,0.0,87,0.00,,---,0.00,VWS V14.01,2013-09-08 22:40:00,
2013-09-08 18:45:00,77.3,73.5,29.96,NW,309,0.0,0.0,88,0.00,,---,0.00,VWS V14.01,2013-09-08 22:45:00,
2013-09-08 18:50:00,77.1,73.6,29.96,NW,309,0.0,0.0,89,0.00,,---,0.00,VWS V14.01,2013-09-08 22:50:00,
2013-09-08 18:55:00,76.8,73.7,29.96,NW,309,0.0,0.0,90,0.00,,---,0.00,VWS V14.01,2013-09-08 22:55:00,
2013-09-08 19:00:00,76.5,73.3,29.96,NW,309,0.0,0.0,90,0.00,,---,0.00,VWS V14.01,2013-09-08 23:00:00,
2013-09-08 19:05:00,76.2,73.4,29.96,NW,309,0.0,0.0,91,0.00,,---,0.00,VWS V14.01,2013-09-08 23:05:00,
2013-09-08 19:10:00,76.0,73.2,29.96,NW,309,0.0,0.0,91,0.00,,---,0.00,VWS V14.01,2013-09-08 23:10:00,
2013-09-08 19:15:00,75.8,73.0,29.96,NW,309,0.0,0.0,91,0.00,,---,0.00,VWS V14.01,2013-09-08 23:15:00,
2013-09-08 19:20:00,75.6,72.8,29.96,NW,309,0.0,0.0,91,0.00,,---,0.00,VWS V14.01,2013-09-08 23:20:00,
2013-09-08 19:25:00,75.4,72.9,29.96,NW,309,0.0,0.0,92,0.00,,---,0.00,VWS V14.01,2013-09-08 23:25:00,
2013-09-08 19:30:00,75.2,72.7,29.96,NW,309,0.0,0.0,92,0.00,,---,0.00,VWS V14.01,2013-09-08 23:30:00,
2013-09-08 19:35:00,75.0,72.5,29.96,NW,309,0.0,0.0,92,0.00,,---,0.00,VWS V14.01,2013-09-08 23:35:00,
2013-09-08 19:40:00,74.8,72.3,29.96,NW,309,0.0,0.0,92,0.00,,---,0.00,VWS V14.01,2013-09-08 23:40:00,
2013-09-08 19:45:00,74.5,72.0,29.96,NW,309,0.0,0.0,92,0.00,,---,0.00,VWS V14.01,2013-09-08 23:45:00,
2013-09-08 19:50:00,74.3,71.8,29.96,NW,309,0.0,0.0,92,0.00,,---,0.00,VWS V14.01,2013-09-08 23:50:00,
2013-09-08 19:55:00,74.1,71.6,29.97,NW,309,0.0,0.0,92,0.00,,---,0.00,VWS V14.01,2013-09-08 23:55:00,
2013-09-08 20:00:00,73.9,71.8,29.97,NW,309,0.0,0.0,93,0.00,,---,0.00,VWS V14.01,2013-09-09 00:00:00,
2013-09-08 20:05:00,73.7,71.6,29.97,NW,309,0.0,0.0,93,0.00,,---,0.00,VWS V14.01,2013-09-09 00:05:00,
2013-09-08 20:10:00,73.5,71.4,29.97,NW,309,0.0,0.0,93,0.00,,---,0.00,VWS V14.01,2013-09-09 00:10:00,
2013-09-08 20:15:00,73.4,71.3,29.97,NW,309,0.0,0.0,93,0.00,,---,0.00,VWS V14.01,2013-09-09 00:15:00,
2013-09-08 20:20:00,73.2,71.1,29.98,NW,309,0.0,0.0,93,0.00,,---,0.00,VWS V14.01,2013-09-09 00:20:00,
2013-09-08 20:25:00,73.0,71.2,29.98,NW,309,0.0,0.0,94,0.00,,---,0.00,VWS V14.01,2013-09-09 00:25:00,
2013-09-08 20:30:00,72.8,71.0,29.98,NW,309,0.0,0.0,94,0.00,,---,0.00,VWS V14.01,2013-09-09 00:30:00,
2013-09-08 20:34:00,72.7,70.9,29.98,NW,309,0.0,0.0,94,0.00,,---,0.00,VWS V14.01,2013-09-09 00:34:00,
2013-09-08 20:39:00,72.5,71.0,29.98,NW,309,0.0,0.0,95,0.00,,---,0.00,VWS V14.01,2013-09-09 00:39:00,
2013-09-08 20:44:00,72.4,70.9,29.98,NW,309,0.0,0.0,95,0.00,,---,0.00,VWS V14.01,2013-09-09 00:44:00,
2013-09-08 20:49:00,72.2,70.7,29.99,NW,309,0.0,0.0,95,0.00,,---,0.00,VWS V14.01,2013-09-09 00:49:00,
2013-09-08 20:54:00,72.1,70.6,29.99,NW,309,0.0,0.0,95,0.00,,---,0.00,VWS V14.01,2013-09-09 00:54:00,
2013-09-08 20:59:00,71.9,70.4,29.99,NW,309,0.0,0.0,95,0.00,,---,0.00,VWS V14.01,2013-09-09 00:59:00,
2013-09-08 21:04:00,71.8,70.3,29.99,NW,309,0.0,0.0,95,0.00,,---,0.00,VWS V14.01,2013-09-09 01:04:00,
2013-09-08 21:09:00,71.6,70.4,29.99,NW,309,0.0,0.0,96,0.00,,---,0.00,VWS V14.01,2013-09-09 01:09:00,
2013-09-08 21:14:00,71.5,70.3,30.00,NW,309,0.0,0.0,96,0.00,,---,0.00,VWS V14.01,2013-09-09 01:14:00,
2013-09-08 21:19:00,71.4,70.2,30.00,NW,309,0.0,0.0,96,0.00,,---,0.00,VWS V14.01,2013-09-09 01:19:00,
2013-09-08 21:24:00,71.3,70.1,30.00,NW,309,0.0,0.0,96,0.00,,---,0.00,VWS V14.01,2013-09-09 01:24:00,
2013-09-08 21:29:00,71.2,70.0,30.00,NW,309,0.0,0.0,96,0.00,,---,0.00,VWS V14.01,2013-09-09 01:29:00,
2013-09-08 21:34:00,71.1,69.9,30.00,NW,309,0.0,0.0,96,0.00,,---,0.00,VWS V14.01,2013-09-09 01:34:00,
2013-09-08 21:39:00,71.0,70.1,30.00,NW,309,0.0,0.0,97,0.00,,---,0.00,VWS V14.01,2013-09-09 01:39:00,
2013-09-08 21:44:00,70.9,70.0,30.00,NW,309,0.0,0.0,97,0.00,,---,0.00,VWS V14.01,2013-09-09 01:44:00,
2013-09-08 21:49:00,70.8,69.9,30.01,NW,309,0.0,0.0,97,0.00,,---,0.00,VWS V14.01,2013-09-09 01:49:00,
2013-09-08 21:54:00,70.7,69.8,30.01,NW,309,0.0,0.0,97,0.00,,---,0.00,VWS V14.01,2013-09-09 01:54:00,
2013-09-08 21:59:00,70.6,69.7,30.01,NW,309,0.0,0.0,97,0.00,,---,0.00,VWS V14.01,2013-09-09 01:59:00,
2013-09-08 22:04:00,70.5,69.6,30.01,NW,309,0.0,0.0,97,0.00,,---,0.00,VWS V14.01,2013-09-09 02:04:00,
2013-09-08 22:09:00,70.4,69.5,30.01,NW,309,0.0,0.0,97,0.00,,---,0.00,VWS V14.01,2013-09-09 02:09:00,
2013-09-08 22:14:00,70.4,69.5,30.01,NW,309,0.0,0.0,97,0.00,,---,0.00,VWS V14.01,2013-09-09 02:14:00,
2013-09-08 22:19:00,70.4,69.8,30.01,NW,309,0.0,0.0,98,0.00,,---,0.00,VWS V14.01,2013-09-09 02:19:00,
2013-09-08 22:24:00,70.3,69.4,30.01,NW,309,0.0,0.0,97,0.00,,---,0.00,VWS V14.01,2013-09-09 02:24:00,
2013-09-08 22:29:00,70.2,69.3,30.01,NW,309,0.0,0.0,97,0.00,,---,0.00,VWS V14.01,2013-09-09 02:29:00,
2013-09-08 22:34:00,70.1,69.2,30.02,NW,309,0.0,0.0,97,0.00,,---,0.00,VWS V14.01,2013-09-09 02:34:00,
2013-09-08 22:39:00,70.0,69.1,30.02,NW,309,0.0,0.0,97,0.00,,---,0.00,VWS V14.01,2013-09-09 02:39:00,
2013-09-08 22:44:00,69.9,69.3,30.02,NW,309,0.0,0.0,98,0.00,,---,0.00,VWS V14.01,2013-09-09 02:44:00,
2013-09-08 22:49:00,69.9,69.3,30.02,NW,309,0.0,0.0,98,0.00,,---,0.00,VWS V14.01,2013-09-09 02:49:00,
2013-09-08 22:54:00,69.8,69.2,30.02,NW,309,0.0,0.0,98,0.00,,---,0.00,VWS V14.01,2013-09-09 02:54:00,
2013-09-08 22:59:00,69.7,69.1,30.02,NW,309,0.0,0.0,98,0.00,,---,0.00,VWS V14.01,2013-09-09 02:59:00,
2013-09-08 23:04:00,69.7,69.1,30.02,NW,309,0.0,0.0,98,0.00,,---,0.00,VWS V14.01,2013-09-09 03:04:00,
2013-09-08 23:09:00,69.6,69.0,30.02,NW,309,0.0,0.0,98,0.00,,---,0.00,VWS V14.01,2013-09-09 03:09:00,
2013-09-08 23:14:00,69.6,69.0,30.02,NW,309,0.0,0.0,98,0.00,,---,0.00,VWS V14.01,2013-09-09 03:14:00,
2013-09-08 23:19:00,69.5,68.9,30.03,NW,309,0.0,0.0,98,0.00,,---,0.00,VWS V14.01,2013-09-09 03:19:00,
2013-09-08 23:24:00,69.4,68.8,30.03,NW,309,0.0,0.0,98,0.00,,---,0.00,VWS V14.01,2013-09-09 03:24:00,
2013-09-08 23:29:00,69.4,68.8,30.03,NW,309,0.0,0.0,98,0.00,,---,0.00,VWS V14.01,2013-09-09 03:29:00,
2013-09-08 23:34:00,69.3,68.7,30.03,NW,309,0.0,0.0,98,0.00,,---,0.00,VWS V14.01,2013-09-09 03:34:00,
2013-09-08 23:39:00,69.2,68.6,30.02,NW,309,0.0,0.0,98,0.00,,---,0.00,VWS V14.01,2013-09-09 03:39:00,
2013-09-08 23:44:00,69.2,68.6,30.03,NW,309,0.0,0.0,98,0.00,,---,0.00,VWS V14.01,2013-09-09 03:44:00,
2013-09-08 23:49:00,69.1,68.5,30.03,NW,309,0.0,0.0,98,0.00,,---,0.00,VWS V14.01,2013-09-09 03:49:00,
2013-09-08 23:54:00,69.0,68.4,30.03,NW,309,0.0,0.0,98,0.00,,---,0.00,VWS V14.01,2013-09-09 03:54:00,
2013-09-08 23:59:00,68.9,68.3,30.03,NW,309,0.0,0.0,98,0.00,,---,0.00,VWS V14.01,2013-09-09 03:59:00,